星链-35995(STARLINK-35995)

导读

STARLINK-35995是美国SpaceX星链星座的一员,于2025年12月1日发射升空,归属星链低轨互联网卫星组网项目。星链项目旨在通过海量低轨卫星,为全球提供高速宽带互联网覆盖,该卫星入轨后将参与星座组网,补全星链系统服务能力,延续星链全球覆盖的部署进程。

基本信息
目录编号:
66817
目录名称:
STARLINK-35995
国际标识:
2025-278AC
轨道中心:
EARTH
卫星名称:
星链-35995
卫星全名:
星链-35995(STARLINK-35995)
卫星状态:
在轨 (已飞行277 天)
发射日期:
2025-12-01 UTC
国别 :
美国 (US)
星等 :
--
轨道信息
数据来源 国际轨道数据 AOE轨道数据
星历时间 2026-09-04T03:49:22+0800
10小时前
查看轨道信息
2026-08-28T23:00:00+0800
6天前
查看轨道信息
半长轴 6861.188km 6861.223km
偏心率 0.0001288 0.0001313
轨道倾角 43.002° 43.004°
近地点辐角 271.914° 251.199°
升交点赤经 188.269° 223.292°
平近点角 88.156° 168.173°
近地点 482.167km 482.185km
远地点 483.935km 483.987km
周期 94.267分钟 94.267分钟
每日圈数 15.275796 15.27568
详细信息
固有亮度:
5
最大亮度:
2.5
卫星平台:
Starlink V1.0
覆盖范围:
全球
运营商:
太空探索技术公司
运营商所在国:
美国
制造商(研发单位):
太空探索技术公司
制造商所在国:
美国
使用方式:
暂无
卫星简介
Starlink 计划是 SpaceX 推出的全球卫星互联网项目,通过发射低轨道卫星,为全球尤其是偏远地区提供高速、低延迟的互联网服务。自 2019 年起,Starlink 已部署数千颗卫星,旨在缩小全球数字鸿沟,推动互联网普及。该项目还为军事、航空等行业提供通信支持,带来广泛经济效益。
2D轨道图
3D轨道图
轨道高度分析图
轨道倾角分析图
轨道综合分析图
查看轨道综合分析图